Regional Weather Roundup
Issued by NWS

Home | Current Version | Previous Version | Graphics & Text | Print | Product List | Glossary On
Versions: 1 2 3 4 5 6 7 8 9 10 11 12 13 14 15 16 17 18 19 20 21 22 23 24 25 26 27 28 29 30 31 32 33 34 35 36 37 38 39 40 41 42 43 44 45 46 47 48 49 50
000
ASUS43 KMPX 232301
RWRMN
WEATHER ROUNDUP FOR MINNESOTA
NATIONAL WEATHER SERVICE TWIN CITIES/CHANHASSEN MN
500 PM CST MON JAN 23 2017


NOTE: "FAIR" INDICATES FEW OR NO CLOUDS BELOW 12,000 FEET WITH NO
SIGNIFICANT WEATHER AND/OR OBSTRUCTIONS TO VISIBILITY. N/A MEANS
CURRENT SKY AND/OR WEATHER CONDITIONS ARE NOT AVAILABLE.

MNZ060>063-068>070-240000-
   Twin Cities Metro

CITY           SKY/WX    TMP DP  RH WIND       PRES   REMARKS
TWIN CITIES    CLOUDY    34  28  79 W5        29.83R WCI  30
ST PAUL        CLOUDY    34  29  82 CALM      29.84R
CRYSTAL        CLOUDY    33  28  81 W3        29.82R
BLAINE         CLOUDY    36  36 100 W6        29.82R FOG
LAKEVILLE        N/A     30  30 100 CALM      29.83R
EDEN PRAIRIE   CLOUDY    33  29  85 W3        29.82S
SOUTH ST PAUL  CLOUDY    34  31  88 W3        29.83R
LAKE ELMO      CLOUDY    34  32  93 NW3       29.83R
$$
MNZ001>005-007-008-013>017-022>024-027-028-240000-
   Northwest Minnesota

CITY           SKY/WX    TMP DP  RH WIND       PRES   REMARKS
BEMIDJI        CLOUDY    31  25  76 W6        29.78S WCI  26
HALLOCK        CLOUDY    28  25  86 SW6       29.78R WCI  22
ROSEAU         CLOUDY    28  23  80 SW12      29.78R WCI  18
WARROAD        CLOUDY    28  25  86 SW10      29.78R WCI  19
THIEF RVR FALL CLOUDY    29  23  78 SW9       29.81R WCI  20
CROOKSTON      CLOUDY    30  27  86 W7        29.82S WCI  23
FOSSTON        CLOUDY    28  25  86 W5        29.81R WCI  23
DETROIT LAKES  CLOUDY    32  28  86 NW3       29.81S
PARK RAPIDS    CLOUDY    32  24  72 W7        29.78S WCI  26
MAHNOMEN       CLOUDY    30  26  84 W5        29.81R WCI  25
$$
MNZ006-009>011-018-025>026-240000-
   North Central Minnesota

CITY           SKY/WX    TMP DP  RH WIND       PRES   REMARKS
BAUDETTE       CLOUDY    32  27  81 SW9       29.76R WCI  24
FLAG ISLAND    CLOUDY    30  28  93 S5        29.75R WCI  25
INTL FALLS     CLOUDY    32  27  81 CALM      29.77R
WASKISH        CLOUDY    30  27  86 W8        29.79R WCI  23
BIG FORK       CLOUDY    32  27  80 SW5       29.79R WCI  27
LONGVILLE      CLOUDY    30  27  86 CALM      29.79R
GRAND RAPIDS   CLOUDY    31  27  85 NW8       29.81R WCI  23
CRANE LAKE     CLOUDY    32  30  93 CALM      29.80S
ORR            CLOUDY    30  28  93 CALM      29.76S
COOK           CLOUDY    32  30  93 CALM      29.78S
WALKER         CLOUDY    31  24  74 SW6       29.79R WCI  25
$$
MNZ012-019>021-037-240000-
   Northeast Minnesota

CITY           SKY/WX    TMP DP  RH WIND       PRES   REMARKS
DULUTH         CLOUDY    34  33  96 NW7       29.77R WCI  28
ELY            MOCLDY    34  34 100 CALM      29.76S
HIBBING        CLOUDY    31  31 100 W5        29.78R WCI  26
EVELETH        MIX PCPN  32  31  97 W3        29.79S
DULUTH HARBOR  CLOUDY    36  34  93 W5        29.81R
TWO HARBORS    MOCLDY    39  34  81 NW5       29.76S
SILVER BAY     CLOUDY    37  36  93 CALM      29.75S
GRAND MARAIS     N/A     37  35  92 W6        29.79R
G MARAIS ARPRT LGT SNOW  32  28  86 CALM      29.75R
$$
MNZ029>031-032-039>041-046>048-054>057-064-240000-
   West Central Minnesota

CITY           SKY/WX    TMP DP  RH WIND       PRES   REMARKS
FERGUS FALLS   CLOUDY    30  27  86 CALM      29.86S
WHEATON        CLOUDY    32  25  74 CALM      29.85R
MORRIS         CLOUDY    30  28  93 NW5       29.82S WCI  25
ALEXANDRIA     CLOUDY    30  24  78 NW8       29.82R WCI  22
ELBOW LAKE     CLOUDY    31  25  77 W3        29.82S HAZE
WADENA         CLOUDY    30  25  80 NW3       29.80S
GLENWOOD       CLOUDY    30  27  86 NW6       29.82S WCI  24
APPLETON       CLOUDY    34  27  75 CALM      29.84R
ORTONVILLE     CLOUDY    32  25  74 CALM      29.83R
MADISON        CLOUDY    34  28  80 CALM      29.83S
WILLMAR        CLOUDY    34  28  80 CALM      29.84S
$$
MNZ033>034-036-042>043-049>051-058-059-240000-
   Central Minnesota

CITY           SKY/WX    TMP DP  RH WIND       PRES   REMARKS
ST CLOUD       CLOUDY    32  28  85 NW5       29.83R WCI  27
SAUK CENTRE    CLOUDY    31  27  84 NW5       29.82R WCI  26
PAYNESVILLE    CLOUDY    32  31  96 N5        29.84R WCI  27
AITKIN         CLOUDY    34  28  80 CALM      29.79R
PINE RIVER     CLOUDY    30  25  80 W5        29.84R WCI  25
BRAINERD       CLOUDY    31  26  82 W5        29.81R WCI  26
STAPLES        CLOUDY    30  27  86 NW5       29.81R WCI  25
LONG PRAIRIE   CLOUDY    32  27  80 CALM      29.81S
LITTLE FALLS   CLOUDY    32  27  80 NW5       29.83R WCI  27
LITCHFIELD     CLOUDY    34  28  80 CALM      29.84R
BUFFALO        CLOUDY    32  28  83 W5        29.84S WCI  28
MAPLE LAKE     CLOUDY    33  30  87 N3        29.84S
HUTCHINSON     CLOUDY    33  29  84 NW5       29.84S WCI  29
$$
MNZ037-044-045-052-053-240000-
   East Central Minnesota

CITY           SKY/WX    TMP DP  RH WIND       PRES   REMARKS
PRINCETON      CLOUDY    34  30  86 W3        29.83R
MORA           CLOUDY    32  30  93 W3        29.83R
CAMBRIDGE      CLOUDY    36  32  87 CALM      29.81R
RUSH CITY      CLOUDY    34  32  93 CALM      29.82R FOG
MOOSE LAKE     CLOUDY    34  32  93 CALM      29.79R
HINCKLEY       CLOUDY    34  32  93 CALM      29.81R
CLOQUET        CLOUDY    34  30  86 NW3       29.78S
MCGREGOR       CLOUDY    32  32 100 CALM      29.80R
$$
MNZ071>073-080-081-089-090-097-098-240000-
   Southwest Minnesota

CITY           SKY/WX    TMP DP  RH WIND       PRES   REMARKS
MONTEVIDEO     CLOUDY    32  32 100 CALM      29.85R
GRANITE FALLS  CLOUDY    33  30  88 W3        29.86R
CANBY          CLOUDY    32  29  88 CALM      29.84R
MARSHALL       CLOUDY    31  27  85 NE5       29.84R WCI  26
REDWOOD FALLS  CLOUDY    33  27  78 W3        29.84R
OLIVIA         CLOUDY    32  28  86 CALM      29.83S
PIPESTONE      CLOUDY    30  28  93 SE3       29.80R
WINDOM         CLOUDY    30  28  93 CALM      29.82S
WORTHINGTON    CLOUDY    30  28  92 VRB3      29.82R
JACKSON        CLOUDY    30  28  93 CALM      29.83R
TRACY          CLOUDY    32  29  90 CALM      29.83R
SLAYTON        CLOUDY    29  28  94 CALM      29.82R FOG
$$
MNZ065>067-074>077-082>085-091>093-240000-
   South Central Minnesota

CITY           SKY/WX    TMP DP  RH WIND       PRES   REMARKS
MANKATO        CLOUDY    32  28  85 NW6       29.84R WCI  26
NEW ULM        CLOUDY    32  30  93 CALM      29.84S
ST JAMES       CLOUDY    30  30 100 CALM      29.85S
FAIRMONT       CLOUDY    32  30  92 CALM      29.84S
GLENCOE        CLOUDY    33  31  90 W5        29.83R WCI  29
OWATONNA       CLOUDY    32  28  86 W3        29.83R
WASECA         CLOUDY    32  28  86 NW6       29.85R WCI  26
ALBERT LEA     CLOUDY    32  28  86 NW6       29.82F WCI  26
$$
MNZ078>079-086>088-094>096-240000-
   Southeast Minnesota

CITY           SKY/WX    TMP DP  RH WIND       PRES   REMARKS
ROCHESTER      CLOUDY    31  29  92 W8        29.82R WCI  23
RED WING       CLOUDY    34  28  80 CALM      29.83R
STANTON        CLOUDY    34  28  80 W5        29.82R WCI  30
DODGE CENTER   CLOUDY    30  28  93 MISG      29.82R
WINONA         CLOUDY    36  32  87 NW6       29.84R
AUSTIN         CLOUDY    32  27  80 NW6       29.82S WCI  26
PRESTON        CLOUDY    32  28  87 NW5       29.82R WCI  27
$$
ABBREVIATIONS USED IN REMARKS
   TC - TEMPERATURES IN CELSIUS
  WCI - WIND CHILL INDEX
   HX - HEAT INDEX
  VSB - VISIBILITY
$$




USA.gov is the U.S. government's official web portal to all federal, state and local government web resources and services.